Preview of NWS' New Version of Forecast
This preview is not operational and should not be used for support decisions.

Regional Weather Roundup (RWR)

Issued by Gray - Portland, ME (GYX)

                            
000
ASUS41 KGYX 180710
RWRGYX
WEATHER ROUNDUP FOR MAINE AND NEW HAMPSHIRE
NATIONAL WEATHER SERVICE GRAY ME
300 AM EDT MON JUN 18 2018

MEZ002-005-006-010-012-015-018-020-021-024-026-027-029-180800-
MAINE
  
CITY           SKY/WX    TMP DP  RH WIND       PRES   REMARKS
PORTLAND       FOG       55  55 100 S3        29.99F VSB 3/4          
SANFORD        FAIR      49  48  97 SW3       30.00F                  
BAR HARBOR     FAIR      54  52  93 E3        30.00F                  
WISCASSET      FAIR      51  51 100 CALM      29.99F                  
ROCKLAND       FAIR      51  50  96 CALM      29.99F                  
FRYEBURG       FAIR      56  55  97 CALM      29.98F                  
LEWISTONAUBURN MOCLDY    52  52 100 S5        29.98F                  
AUGUSTA        FAIR      53  52  96 VRB6      29.97F                  
WATERVILLE     FAIR      52  51  97 CALM      29.94                   
BANGOR         MOCLDY    53  51  93 S6        29.97F                  
GREENVILLE       N/A     53  50  89 SE8       29.93F                  
MILLINOCKET    FAIR      55  49  80 VRB3      29.95F                  
HOULTON        CLOUDY    55  47  74 SW8       29.92F                  
PRESQUE ISLE   LGT RAIN  53  46  77 S12       29.88F                  
FRENCHVILLE    FAIR      55  48  77 SE14      29.83F                  
CARIBOU        LGT RAIN  53  46  77 S9        29.87F                  
$$

NHZ002-005-008-009-011-012-014-180800-
NEW HAMPSHIRE
  
CITY           SKY/WX    TMP DP  RH WIND       PRES   REMARKS
ROCHESTER      FAIR      55  54  96 CALM      29.99F                  
NASHUA         FAIR      61  58  90 CALM      30.00F                  
MANCHESTER     MOCLDY    65  56  72 S5        29.97F                  
CONCORD        FAIR      59  55  87 CALM      29.99F                  
LACONIA        FAIR      65  56  72 W6        29.99F                  
PLYMOUTH         N/A     59  56  87 CALM      29.99F                  
BERLIN         FAIR      60  57  89 CALM      29.95F                  
WHITEFIELD     FAIR      61  55  81 CALM      29.96F HAZE             
JAFFREY        FAIR      68  56  65 VRB5      30.03F                  
KEENE          FAIR      59  56  89 CALM      30.01F                  
LEBANON        FAIR      62  55  77 S6        29.97F                  
MT WASHINGTON  CLOUDY    54  48  82 W51G58      N/A                   
$$

VTZ005-007-008-180800-
VERMONT
  
CITY           SKY/WX    TMP DP  RH WIND       PRES   REMARKS
ST JOHNSBURY     N/A     67  56  67 MISG      29.92F                  
MONTPELIER     FAIR      71  52  50 S6        29.98F                  
BURLINGTON     FAIR      77  51  40 S13       29.88F                  
$$

MAZ007-012-024-CTZ003-RIZ002-NYZ038-NYZ072-180800-
SOUTHERN NEW ENGLAND AND NY
  
CITY           SKY/WX    TMP DP  RH WIND       PRES   REMARKS
BOSTON         MOCLDY    67  56  67 SW10      30.01F                  
WORCESTER      FAIR      67  52  58 SW15      30.04F                  
NANTUCKET      FAIR      61  59  93 SW9       30.08S                  
PROVIDENCE     FAIR      63  60  90 S5        30.06S                  
HARTFORD       FAIR      66  57  72 S6        30.03F                  
ALBANY         FAIR      73  54  51 S12       29.99F                  
NEW YORK CITY  FAIR      76  62  62 SW7       30.05F                  
$$

ANZ081-ANZ082-ANZ150-NHZ014-MEZ023>029-180800-
COASTAL MARINE OBSERVATIONS
  
STATION/POSITION TIME  TEMP    WIND        PRES    WAVE
                       AIR SEA DIR/SP/G            HT/PER
                 (UTC) (F)     (DEG/KT/KT) (MB)    (FT/S)
MOUNT DESERT ROC 0700   53     170/  9/  9 1016.6F
MATINICUS ROCK   0700   53     170/ 11/ 11 1015.5F
ISLE OF SHOALS   0600   59      20/  2/  2 1016.1F
JEFFREYS LEDGE   0636      59                N/A     2/ 3
$$

.............KEY..............
   WCI - WIND CHILL
   TC  - TEMPERATURE IN CELSIUS
   VSB - VISIBILITY IN MILES
   HX  - HEAT INDEX
   FAIR- INDICATES FEW OR NO CLOUDS BELOW 12,000 FT, WITH NO 
         SIGNIFICANT WEATHER AND/OR OBSTRUCTIONS TO VISIBILITY.